Regional Weather Roundup
Issued by NWS Mobile, AL

Home | Current Version | Previous Version | Text Only | Print | Product List | Glossary On
Versions: 1 2 3 4 5 6 7 8 9 10 11 12 13 14 15 16 17 18 19 20 21 22 23 24 25 26 27 28
000
ASUS44 KMOB 061712
RWRMOB
REGIONAL WEATHER ROUNDUP
NATIONAL WEATHER SERVICE MOBILE AL
1100 AM CST TUE DEC 06 2016

NOTE: "FAIR" INDICATES FEW OR NO CLOUDS BELOW 12,000 FEET WITH NO
      SIGNIFICANT WEATHER AND/OR OBSTRUCTIONS TO VISIBILITY.

  * THESE STATIONS ARE PART OF THE UNIVERSITY OF SOUTH ALABAMA
    MESONET AND ARE NOT UNDER NWS OR FAA QUALITY CONTROL.

ALZ061>064-061800-
COASTAL ALABAMA

CITY           SKY/WX    TMP DP  RH WIND       PRES   REMARKS
MOBILE REG APT CLOUDY    59  53  80 VRB6      29.90S
BROOKLEY FIELD CLOUDY    62  55  77 W5        29.91S
USA CAMPUS*      N/A     61  55  82 CALM      29.90F
DOG RIVER*       N/A     61  54  77 W10       30.63F


CITY           SKY/WX    TMP DP  RH WIND       PRES   REMARKS
GULF SHORES    CLOUDY    63  56  77 W15G23    29.90F

$$

ALZ051>060-061800-
INTERIOR SOUTHWEST AND SOUTH CENTRAL ALABAMA

CITY           SKY/WX    TMP DP  RH WIND       PRES   REMARKS
GREENVILLE     CLOUDY    62  54  74 W12       29.84R
EVERGREEN      CLOUDY    61  54  77 W10G17    29.87R
ATMORE*          N/A     59  55  88 W15       29.91S
ANDALUSIA/OPP  CLOUDY    69  55  60 W14G23    29.85R
ANDALUSIA*       N/A     63  55  77 W9        29.86R
FLORALA APT    CLOUDY    65  56  72 SW10G17   29.86S
FLORALA*         N/A     66  59  77 S6        30.52S

$$

FLZ001>006-061800-
WESTERN FLORIDA PANHANDLE

CITY           SKY/WX    TMP DP  RH WIND       PRES   REMARKS
PENSACOLA      CLOUDY    64  53  67 W15       29.89S
NAS PENSACOLA  CLOUDY    63  53  70 W12G20    29.89F
MILTON         PTSUNNY   62  54  74 W14       29.89R
WHTNG S FIELD  PTSUNNY   65  55  70 W12G20    29.89R


CITY           SKY/WX    TMP DP  RH WIND       PRES   REMARKS
JAY*             N/A     61  52  72 W8        29.89S
DUKE FIELD     PTSUNNY   66  55  67 W10       29.86F
CRESTVIEW        N/A     65  55  70 W12       29.88F
VALPARAISO     MOSUNNY   68  55  62 W9G18     29.87S
DESTIN         SUNNY     68  57  68 W10G22    29.88R

$$

MSZ076-079-061800-
INTERIOR SOUTHEAST MISSISSIPPI

CITY           SKY/WX    TMP DP  RH WIND       PRES   REMARKS
LEAKESVILLE*   NOT AVBL
AGRICOLA*      NOT AVBL

$$

MARINE OBSERVATIONS

STATION/POSITION TIME  TEMP    WIND        PRES    WAVE
                       AIR SEA DIR/SP/G            HT/PER
                 (UTC) (F)     (DEG/KT/KT) (MB)    (FT/S)
PASCAGOULA       1648   60     280/  9/ 12 1012.5S
PETIT BOIS ISLND 1648   59     280/ 18/ 21 1013.5S
GRAND BAY        1545   60     270/ 10     1013.0R
KATRINA CUT      1630   58     280/ 17     1012.9R
CEDAR POINT      1630   60     280/ 16     1012.2S
E DAUPHIN ISLAND 1700   61     280/ 11/ 16 1012.3F
MIDDLE BAY LIGHT 1630          260/ 14     1012.5R
USCG MOBILE BAY  1648   60 62  280/  7/ 12 1013.1R
STATE DOCKS      1642   61 64              1012.4R
MEAHER PARK      1630   60     250/ 10     1013.2R
WEEKS BAY        1545   61                   N/A
12 S ORANGE BCH  1650   63 69  270/ 17/ 23 1012.4R   8/ 7
PENSACOLA BAY    1642   63 64  280/  6/ 12 1012.2F
64 S DAUPHIN ISL 1650   64 74  270/ 19/ 25 1013.6R   6/ 7
67 S FORT MORGAN 1630   68     300/  6     1013.2R

$$

SELECTED LOCATIONS ACROSS THE REGION

CITY           SKY/WX    TMP DP  RH WIND       PRES   REMARKS
NEW ORLEANS    CLOUDY    57  54  89 W8        29.95S
GULFPORT       MOSUNNY   62  54  74 NW15      29.91S
PASCAGOULA AP  CLOUDY    63  52  67 NW9       29.90F
PASCAGOULA*    NOT AVBL
HATTIESBURG    CLOUDY    57  50  77 NW9       29.93S
LAUREL         CLOUDY    54  46  76 NW8       29.93F
MERIDIAN       CLOUDY    56  48  74 W8        29.91R
JACKSON        CLOUDY    52  48  86 W7        29.93R
MONTGOMERY     CLOUDY    63  53  70 W16       29.82R
TROY           CLOUDY    67  57  70 W15G29    29.82R
ASHFORD*         N/A     63  55  77 W9        29.86R
DOTHAN         MOSUNNY   71  59  65 W15G25    29.84R
PANAMA CITY    SUNNY     70  57  63 W18G28    29.84S

$$





USA.gov is the U.S. government's official web portal to all federal, state and local government web resources and services.